Satellite-Ground Cal/Val Region Overpasses Predictions

Prediction of Satellite NPP Overpassing Cal/Val Region: PacNW

Region Location: (Latitude: 10.00, Longitude: 139.50) to (Latitude: 22.70, Longitude: 165.60).

Table of predicted overpasses for the next 14.0 days since TLE Epoch: 12/10/2015
Interval Starting Time Starting Location Ending Time Ending Location
1 12/10/2015 14:32:16 ( 11.95, 165.59) 12/10/2015 14:32:49 ( 10.01, 165.15)
2 12/10/2015 16:10:43 ( 22.68, 142.78) 12/10/2015 16:14:18 ( 10.06, 139.78)
3 12/11/2015 03:19:48 ( 10.03, 150.32) 12/11/2015 03:23:23 ( 22.66, 147.32)
4 12/11/2015 15:51:41 ( 22.68, 147.54) 12/11/2015 15:55:17 ( 10.01, 144.53)
5 12/12/2015 03:00:46 ( 10.03, 155.08) 12/12/2015 03:04:21 ( 22.65, 152.08)
6 12/12/2015 15:32:38 ( 22.69, 152.30) 12/12/2015 15:36:14 ( 10.01, 149.29)
7 12/13/2015 02:41:43 ( 10.02, 159.83) 12/13/2015 02:45:18 ( 22.65, 156.84)
8 12/13/2015 15:13:36 ( 22.69, 157.06) 12/13/2015 15:17:12 ( 10.01, 154.05)
9 12/14/2015 02:22:41 ( 10.02, 164.59) 12/14/2015 02:26:16 ( 22.64, 161.60)
10 12/14/2015 14:54:33 ( 22.70, 161.81) 12/14/2015 14:58:09 ( 10.02, 158.80)
11 12/15/2015 03:45:08 ( 10.03, 143.97) 12/15/2015 03:48:43 ( 22.65, 140.98)
12 12/15/2015 14:36:39 ( 18.71, 165.59) 12/15/2015 14:39:07 ( 10.02, 163.56)
13 12/15/2015 16:17:01 ( 22.69, 141.19) 12/15/2015 16:19:00 ( 15.71, 139.50)
14 12/16/2015 03:26:06 ( 10.03, 148.73) 12/16/2015 03:29:41 ( 22.65, 145.73)
15 12/16/2015 15:57:59 ( 22.69, 145.95) 12/16/2015 16:01:35 ( 10.02, 142.94)
16 12/17/2015 03:07:03 ( 10.02, 153.49) 12/17/2015 03:10:38 ( 22.65, 150.49)
17 12/17/2015 15:38:56 ( 22.70, 150.71) 12/17/2015 15:42:32 ( 10.02, 147.70)
18 12/18/2015 02:48:01 ( 10.02, 158.25) 12/18/2015 02:51:36 ( 22.65, 155.25)
19 12/18/2015 15:19:54 ( 22.70, 155.47) 12/18/2015 15:23:30 ( 10.02, 152.46)
20 12/19/2015 02:28:58 ( 10.02, 163.00) 12/19/2015 02:32:33 ( 22.65, 160.01)
21 12/19/2015 15:00:51 ( 22.70, 160.22) 12/19/2015 15:04:27 ( 10.02, 157.21)
22 12/20/2015 02:12:34 ( 19.30, 165.59) 12/20/2015 02:13:31 ( 22.65, 164.76)
23
